Preview of NWS' New Version of Forecast
This preview is not operational and should not be used for support decisions.

Regional Weather Roundup (RWR)

Issued by National Weather Service (NWS)

                            
000
ASUS46 KPQR 200110
RWROR 

OREGON REGIONAL WEATHER ROUNDUP
NATIONAL WEATHER SERVICE PORTLAND OR
600 PM PDT FRI APR 19 2019

NOTE: "FAIR" INDICATES FEW OR NO CLOUDS BELOW 12,000 FEET WITH
NO SIGNIFICANT WEATHER AND/OR OBSTRUCTIONS TO VISIBILITY.

ORZ001>013-200200-
NORTHWEST OREGON

  
CITY           SKY/WX    TMP DP  RH WIND       PRES   REMARKS
ASTORIA        CLOUDY    53  48  83 NW8       29.99R                  
TILLAMOOK      CLOUDY    54  52  94 W7        29.99F                  
NEWPORT        LGT RAIN  52  52 100 NW10      30.01S                  
PORTLAND       LGT RAIN  56  52  86 NW10      29.95S                  
VANCOUVER WA   LGT RAIN  55  52  89 NW8       29.95S                  
SCAPPOOSE      LGT RAIN  57  51  80 N8        29.94F                  
HILLSBORO      LGT RAIN  55  52  89 NW3       29.94F                  
AURORA         LGT RAIN  55  53  93 N8        29.95F FOG              
MCMINNVILLE    LGT RAIN  55  52  89 NW6       29.95S FOG              
SALEM          LGT RAIN  55  53  93 N8        29.95R FOG              
CORVALLIS      LGT RAIN  55  53  93 NW7       29.95S                  
EUGENE         CLOUDY    59  53  80 N12       29.94R                  
$$

ORZ021-028-200200-
SOUTHWEST OREGON

  
CITY           SKY/WX    TMP DP  RH WIND       PRES   REMARKS
NORTH BEND     CLOUDY    54  51  90 NW7       30.00F                  
BROOKINGS      CLOUDY    54  51  90 NW8       29.97F                  
ROSEBURG       CLOUDY    63  51  65 NW9       29.92S                  
SEXTON SUMMIT  CLOUDY    55  49  80 VRB6      29.92S                  
GRANTS PASS    CLOUDY    72  52  49 N14G20    29.87R                  
MEDFORD        MOSUNNY   74  52  46 NW10      29.80R                  
$$

ORZ014>016-041-200200-
COLUMBIA GORGE

  
CITY           SKY/WX    TMP DP  RH WIND       PRES   REMARKS
TROUTDALE      LGT RAIN  56  54  93 VRB3      29.94F                  
HOOD RIVER     CLOUDY    63  46  55 MISG      29.89S                  
THE DALLES     CLOUDY    66  45  46 W22G32    29.83S                  
$$

ORZ029>031-041-044-049-050-061>064-502-503-505>511-200200-
EASTERN OREGON

  
CITY           SKY/WX    TMP DP  RH WIND       PRES   REMARKS
MADRAS         CLOUDY    63  50  63 N16       29.85R                  
REDMOND        PTSUNNY   68  48  48 NW17G26   29.81R                  
BEND           PTSUNNY   66  48  52 N21       29.82R                  
PRINEVILLE     CLOUDY    64  50  59 N15G21    29.81S                  
KLAMATH FALLS  PTSUNNY   69  42  37 W13       29.85F                  
LAKEVIEW       PTSUNNY   69  37  30 SW20      29.89F                  
HERMISTON      PTSUNNY   73  47  39 N13       29.77R                  
PENDLETON      LGT RAIN  65  54  67 NE8       29.78S                  
JOHN DAY       PTSUNNY   69  49  49 W14G21    29.81R                  
MEACHAM        CLOUDY    54  50  86 CALM      29.86F                  
LA GRANDE      CLOUDY    60  53  77 W9        29.84R                  
BAKER CITY     PTSUNNY   65  51  60 NW21G29   29.79R                  
BURNS          MOSUNNY   75  38  26 S15       29.80F                  
ROME             N/A     78  28  16 SW20G30   29.80F                  
ONTARIO        PTSUNNY   81  50  33 SE7       29.73F                  
$$